Temp
8 8 9 9 9 9 9 9 9 8 8 8 8 8 8 8 8 7 7 6 6 6 6 6 5 5 5 5 5 5 5 5 5 5 5 5 5 5 5 5 5 5
6 7 8 8 9 8 8 9 8 8 8 8 8 8 8 8 8 8 7 7 6 6 6 6 6 5 5 5 5 5 5 5 5 5 5 5 5 5 5 5 5 5
5 6 6 7 8 8 8 8 8 8 8 8 7 7 8 8 8 8 8 7 7 6 6 6 6 5 5 5 5 5 5 5 5 5 5 5 5 5 5 5 5 5
5 5 5 5 7 8 8 8 8 8 8 7 7 7 7 8 8 8 8 7 7 6 6 6 6 6 5 5 5 5 5 5 5 5 5 5 5 5 5 5 5 5
5 5 5 5 5 6 7 7 8 8 7 7 7 7 7 7 8 8 8 7 7 7 6 6 6 6 6 6 5 5 5 5 5 5 5 5 5 5 5 5 5 5
5 5 6 5 5 5 5 6 6 7 7 7 7 7 7 7 7 7 8 7 7 7 6 6 6 6 6 6 5 5 5 5 5 5 5 5 5 5 5 5 5 5
5 5 5 6 6 5 5 5 5 5 6 6 6 6 6 7 7 7 7 7 7 7 6 6 6 6 6 6 6 5 5 5 5 5 5 5 5 5 5 5 5 5
5 5 4 5 5 6 6 6 6 6 6 6 6 6 6 6 7 7 7 7 7 6 6 6 6 6 6 6 6 5 5 5 5 5 5 5 5 5 5 5 5 5
4 4 4 4 4 5 5 6 6 6 6 6 6 6 5 6 6 6 6 6 7 6 6 6 6 6 6 6 6 6 6 6 5 5 5 5 5 5 5 5 5 5
4 4 4 4 4 4 5 6 6 6 6 6 6 6 6 5 5 6 6 6 6 6 6 6 6 6 6 6 6 6 6 6 5 5 5 5 5 5 5 5 5 5
3 4 4 4 4 4 4 5 5 5 6 6 6 6 6 5 5 5 6 6 6 6 6 6 6 5 5 5 5 5 5 5 5 5 5 5 5 5 5 5 5 5
3 3 4 4 3 3 4 4 5 5 5 5 5 5 5 5 5 5 5 5 6 6 6 6 6 5 5 5 5 5 5 5 5 5 5 5 5 5 5 5 5 5
2 2 3 3 3 3 3 4 4 5 5 5 5 5 5 5 5 5 5 5 5 6 6 6 6 5 5 5 5 5 5 5 5 5 5 5 5 5 5 5 5 5
2 2 3 3 3 3 3 3 4 4 4 4 5 5 5 5 5 5 5 5 5 5 5 5 5 5 5 5 5 5 5 5 5 5 5 5 5 5 5 5 5 5
2 2 2 3 3 3 3 3 4 4 4 4 4 4 4 5 5 5 4 4 4 5 5 5 5 5 5 5 5 5 5 5 5 5 5 4 4 5 5 5 5 5
1 1 2 3 3 3 3 3 3 4 4 4 4 4 4 4 5 5 4 4 4 4 4 4 5 5 5 4 4 4 5 4 4 4 4 4 4 5 5 5 5 5
1 1 2 2 3 3 3 3 3 3 4 4 4 4 4 3 4 5 5 4 4 4 4 4 4 4 4 4 4 4 4 4 4 4 4 4 5 5 5 5 5 5
0 0 1 1 2 3 3 3 3 3 3 3 4 4 3 3 4 4 4 4 4 4 4 5 4 4 4 4 4 4 4 4 4 4 4 4 5 5 5 5 5 5
-0 0 0 1 1 2 2 2 3 3 3 3 3 3 3 3 3 4 4 4 3 4 4 4 4 4 4 4 4 4 4 4 4 4 4 4 4 4 5 5 5 5
-0 -0 -0 0 1 1 1 2 2 3 3 3 3 3 3 3 3 3 3 3 3 3 4 3 4 4 4 4 4 4 4 4 4 4 4 4 4 4 4 5 5 5
-1 -1 -1 -0 0 1 1 1 1 2 3 3 3 3 3 3 3 3 3 3 3 3 3 3 3 3 4 4 4 4 5 4 4 4 4 4 4 4 4 4 5 5
-1 -1 -1 -1 -0 0 0 1 1 1 2 2 2 3 3 3 3 3 3 3 3 3 3 3 3 3 3 4 4 5 5 4 4 4 4 4 4 4 4 4 4 4
-1 -1 -1 -1 -1 0 0 0 1 1 1 1 1 2 2 2 2 2 2 3 3 3 3 4 4 4 3 3 4 4 4 4 4 4 4 4 4 4 4 4 4 4
-2 -2 -1 -1 -1 -0 -0 -0 0 1 1 1 1 1 1 1 2 2 2 3 3 3 4 4 4 4 4 4 4 4 4 4 4 4 4 4 4 4 4 4 4 4
-2 -2 -2 -1 -1 -0 0 -0 0 1 1 1 2 2 2 2 2 2 2 2 3 3 4 4 4 4 4 4 4 4 4 4 4 4 4 4 4 4 4 5 4 4
-2 -2 -2 -2 -1 -1 -0 -0 0 1 1 2 2 2 2 2 2 2 2 2 2 3 3 3 4 4 4 4 4 4 4 4 4 4 4 4 4 4 4 4 4 4
Height
3072 3075 3076 3077 3077 3078 3078 3078 3078 3078 3078 3078 3079 3079 3079 3079 3079 3079 3079 3079 3079 3080 3081 3082 3083 3084 3085 3086 3089 3091 3092 3094 3096 3098 3099 3100 3102 3103 3105 3107 3108 3109
3066 3068 3071 3073 3074 3075 3075 3075 3076 3076 3076 3076 3076 3077 3077 3077 3077 3076 3076 3076 3076 3077 3078 3079 3080 3081 3082 3083 3085 3087 3088 3090 3093 3094 3096 3097 3099 3100 3102 3104 3105 3106
3064 3063 3065 3068 3070 3071 3072 3072 3073 3073 3074 3074 3073 3074 3074 3075 3074 3074 3074 3074 3074 3074 3074 3076 3077 3078 3079 3080 3081 3083 3085 3087 3089 3091 3093 3095 3097 3098 3099 3101 3102 3104
3064 3062 3062 3063 3064 3067 3068 3069 3070 3070 3071 3071 3071 3071 3071 3072 3072 3072 3072 3071 3072 3072 3072 3073 3074 3075 3076 3077 3079 3080 3082 3084 3086 3087 3089 3091 3094 3096 3097 3098 3100 3101
3062 3063 3062 3061 3059 3059 3061 3064 3066 3067 3068 3068 3068 3068 3068 3069 3069 3069 3069 3069 3069 3069 3070 3070 3071 3072 3073 3074 3076 3077 3079 3081 3082 3084 3086 3089 3091 3093 3094 3096 3097 3099
3058 3060 3060 3060 3058 3057 3056 3057 3059 3062 3064 3065 3066 3065 3066 3066 3066 3066 3067 3067 3067 3067 3067 3067 3068 3069 3070 3071 3072 3074 3075 3077 3079 3081 3084 3086 3088 3090 3091 3093 3095 3097
3053 3055 3056 3056 3057 3057 3057 3056 3056 3058 3060 3062 3063 3063 3063 3064 3064 3064 3064 3065 3064 3064 3065 3065 3065 3067 3068 3068 3069 3070 3072 3074 3076 3078 3081 3083 3085 3087 3089 3090 3092 3095
3048 3050 3051 3052 3053 3053 3055 3057 3058 3058 3058 3059 3060 3060 3060 3061 3061 3061 3062 3062 3062 3062 3062 3062 3063 3064 3065 3065 3066 3067 3069 3071 3073 3076 3078 3080 3082 3084 3087 3088 3090 3092
3042 3044 3045 3047 3048 3049 3051 3054 3055 3056 3057 3057 3057 3056 3056 3056 3058 3059 3059 3059 3060 3060 3060 3060 3061 3062 3063 3063 3064 3065 3068 3070 3071 3073 3076 3078 3080 3082 3084 3086 3088 3090
3037 3039 3039 3040 3043 3045 3048 3050 3051 3052 3053 3054 3054 3054 3053 3052 3053 3055 3056 3056 3057 3057 3058 3058 3059 3060 3061 3061 3062 3064 3066 3068 3069 3071 3073 3076 3078 3080 3082 3084 3086 3088
3033 3034 3035 3036 3038 3040 3043 3045 3046 3048 3049 3049 3051 3053 3052 3049 3049 3051 3053 3053 3054 3055 3056 3057 3057 3058 3059 3060 3061 3063 3065 3066 3068 3070 3072 3074 3076 3078 3080 3082 3084 3086
3029 3031 3032 3033 3034 3036 3038 3040 3041 3042 3043 3044 3046 3049 3050 3049 3047 3046 3047 3049 3051 3053 3054 3054 3055 3056 3057 3058 3060 3061 3063 3064 3066 3068 3070 3072 3074 3076 3078 3080 3082 3084
3025 3027 3029 3030 3031 3032 3034 3035 3036 3037 3039 3040 3041 3044 3046 3048 3047 3044 3042 3044 3047 3050 3052 3052 3053 3054 3056 3057 3058 3060 3061 3063 3064 3066 3068 3069 3071 3073 3076 3078 3080 3082
3021 3022 3024 3025 3026 3028 3029 3030 3030 3033 3036 3035 3035 3038 3041 3044 3046 3043 3039 3040 3043 3046 3048 3050 3051 3052 3053 3055 3057 3058 3059 3061 3062 3064 3066 3067 3069 3071 3074 3076 3078 3081
3016 3017 3019 3020 3021 3022 3024 3025 3024 3027 3031 3030 3029 3032 3036 3038 3040 3040 3039 3038 3039 3041 3043 3046 3048 3050 3051 3053 3055 3056 3058 3059 3061 3062 3064 3065 3068 3070 3072 3074 3077 3079
3013 3013 3014 3015 3016 3017 3019 3019 3019 3022 3025 3026 3026 3027 3028 3031 3036 3040 3040 3039 3038 3038 3038 3040 3043 3046 3048 3051 3053 3055 3057 3058 3059 3061 3063 3065 3067 3069 3071 3073 3075 3077
3009 3011 3011 3011 3012 3013 3014 3014 3015 3017 3020 3022 3022 3021 3023 3027 3033 3038 3040 3039 3039 3039 3039 3040 3041 3043 3045 3047 3050 3053 3055 3057 3058 3060 3062 3064 3066 3068 3070 3072 3073 3075
3006 3007 3008 3008 3008 3009 3009 3010 3011 3012 3014 3017 3018 3018 3021 3025 3029 3034 3037 3036 3037 3039 3041 3042 3043 3045 3047 3049 3050 3050 3052 3055 3057 3058 3060 3062 3064 3066 3068 3070 3071 3073
3003 3004 3005 3006 3006 3005 3005 3006 3008 3009 3011 3012 3013 3015 3019 3023 3026 3030 3033 3034 3034 3037 3039 3041 3044 3046 3049 3051 3052 3052 3051 3052 3054 3057 3059 3061 3063 3063 3065 3068 3070 3072
3000 3001 3002 3003 3004 3003 3002 3003 3005 3007 3008 3009 3011 3013 3016 3020 3024 3028 3030 3031 3033 3036 3038 3040 3043 3045 3048 3050 3051 3053 3054 3054 3055 3058 3060 3062 3064 3063 3062 3064 3068 3070
2996 2998 3000 3001 3002 3002 3002 3001 3002 3004 3005 3007 3009 3011 3013 3017 3021 3024 3026 3027 3030 3033 3037 3040 3042 3044 3045 3048 3050 3052 3054 3055 3056 3059 3060 3062 3063 3062 3062 3062 3064 3067
2992 2994 2997 2999 3000 3001 3001 3001 3002 3002 3003 3004 3006 3008 3011 3014 3018 3020 3023 3026 3028 3032 3036 3039 3041 3042 3044 3046 3048 3050 3050 3051 3053 3055 3057 3059 3060 3060 3063 3064 3063 3064
2987 2990 2993 2996 2997 2998 2999 3001 3002 3002 3002 3003 3005 3006 3008 3012 3015 3018 3022 3025 3028 3031 3033 3036 3038 3040 3042 3044 3046 3047 3047 3048 3050 3052 3054 3056 3058 3060 3064 3066 3066 3066
2984 2987 2990 2992 2994 2996 2998 3000 3002 3003 3004 3004 3006 3006 3007 3010 3013 3017 3021 3024 3026 3028 3030 3032 3035 3037 3040 3042 3043 3045 3045 3046 3049 3051 3053 3054 3056 3060 3064 3065 3066 3066
2980 2983 2986 2989 2991 2994 2997 3000 3002 3004 3005 3005 3006 3007 3008 3010 3013 3017 3020 3022 3025 3026 3028 3030 3032 3034 3037 3039 3041 3042 3044 3046 3048 3050 3051 3053 3056 3060 3062 3063 3063 3064
2976 2979 2983 2986 2988 2991 2994 2997 3000 3002 3004 3005 3006 3007 3009 3011 3013 3016 3018 3021 3023 3025 3026 3028 3030 3031 3033 3035 3037 3039 3041 3044 3046 3047 3050 3054 3056 3057 3058 3059 3061 3062
Wind_Speed
37 36 34 33 31 29 27 24 21 20 20 19 18 17 14 12 12 12 12 11 11 13 14 16 17 19 20 21 21 21 21 21 21 21 21 21 21 22 23 23 21 19
34 35 36 36 35 32 30 28 23 22 21 20 20 19 16 14 13 13 13 12 11 12 14 15 17 18 19 20 20 20 20 21 22 22 21 20 20 21 22 21 20 18
32 34 34 36 37 35 32 30 27 24 22 22 22 21 19 16 14 14 14 14 12 12 13 14 15 17 18 19 20 20 21 22 23 22 21 21 21 21 21 20 19 18
36 34 33 34 36 37 36 33 29 26 24 24 23 22 21 18 16 15 15 15 13 12 13 14 15 16 16 17 19 21 23 23 23 23 22 22 21 21 21 20 18 18
41 38 35 34 34 36 37 35 32 28 26 25 24 23 22 20 17 16 15 16 15 13 13 14 14 15 15 15 18 21 24 23 23 23 23 22 22 21 20 20 19 19
40 39 38 37 36 35 32 32 33 31 28 27 25 24 23 21 19 17 16 16 16 14 13 14 14 14 14 15 17 20 22 23 23 23 23 22 22 21 21 21 20 20
34 38 39 39 38 37 33 29 29 29 27 27 27 25 24 23 21 19 17 17 16 15 13 14 14 14 14 16 17 19 21 22 23 23 22 23 23 22 22 22 21 20
31 34 39 39 38 38 36 31 28 28 27 27 28 27 25 25 23 20 19 18 17 16 14 15 15 14 15 16 18 19 21 21 22 22 22 23 23 24 23 22 21 20
31 31 35 37 37 37 36 33 30 29 28 29 31 30 28 27 24 21 20 18 18 17 16 15 15 15 15 16 18 20 22 21 21 22 22 22 23 24 24 23 22 20
31 30 32 34 36 37 35 34 32 29 29 31 33 33 31 28 25 23 22 19 18 18 17 16 15 15 15 16 18 20 22 22 22 22 21 21 22 23 23 23 22 20
27 27 29 31 35 36 34 33 34 32 31 32 33 34 33 30 27 25 23 20 20 19 18 17 17 16 16 17 18 20 21 22 22 21 21 20 22 23 23 22 21 20
23 24 26 29 34 34 32 32 36 36 34 33 33 34 34 31 28 27 25 22 20 19 18 18 18 18 18 18 18 19 21 22 22 21 21 22 23 24 23 23 21 20
20 24 26 29 32 34 34 35 36 36 35 33 32 32 34 33 29 27 26 24 21 20 19 19 18 19 19 19 18 18 20 21 22 22 22 23 24 23 23 22 20 19
19 22 26 29 32 34 36 37 36 33 33 34 34 33 34 34 31 28 26 24 23 22 20 19 19 19 20 20 19 18 19 20 21 22 21 22 23 23 22 21 19 18
18 21 24 28 33 35 37 39 38 34 34 36 35 33 33 33 33 31 27 24 24 24 23 21 20 20 21 21 20 19 19 20 20 20 20 21 22 22 21 20 19 18
16 19 25 29 32 34 36 39 39 37 36 36 35 33 33 32 32 29 27 25 24 25 26 24 21 21 22 21 20 19 19 19 20 20 20 21 21 21 20 19 19 17
14 17 24 30 32 32 34 37 39 38 37 36 36 35 32 28 27 26 26 26 25 24 24 22 21 23 24 24 23 20 19 18 19 20 20 21 20 20 19 18 17 16
14 16 20 25 28 30 30 32 35 37 36 33 33 31 27 24 25 26 26 27 25 22 21 20 20 20 20 20 21 21 21 20 19 20 21 21 20 19 18 17 16 15
15 17 19 22 24 26 24 23 26 29 28 26 25 24 23 24 25 26 27 27 24 20 18 19 19 17 16 15 15 16 18 20 21 21 21 20 21 21 19 17 15 14
16 17 18 21 21 21 19 17 19 23 23 22 24 25 27 29 27 26 27 25 23 20 17 16 16 16 16 16 15 15 16 18 19 19 18 19 20 20 18 18 16 15
19 19 19 20 20 19 13 11 15 19 22 23 24 24 25 26 24 24 24 23 22 21 17 15 14 15 17 18 17 17 18 20 19 17 17 18 18 17 17 18 19 18
18 18 18 21 22 22 18 11 10 13 16 20 22 20 19 18 16 17 19 20 20 19 16 15 15 15 17 18 19 20 21 20 17 17 17 16 15 16 17 16 16 18
18 15 15 20 26 26 21 15 12 9 9 12 15 15 14 13 11 12 14 14 14 14 15 16 17 17 18 19 20 22 22 21 19 17 17 16 15 16 16 14 13 14
21 18 15 19 26 29 25 18 15 13 9 8 10 12 12 12 11 11 10 10 10 12 14 17 19 19 19 20 21 22 23 22 21 19 19 19 19 18 14 12 12 14
26 22 18 18 21 26 28 25 20 16 12 10 10 11 11 10 10 10 10 10 11 11 12 15 18 21 22 22 23 22 22 22 22 22 22 20 18 17 15 14 15 15
26 23 19 18 19 21 26 29 27 22 18 14 10 9 9 9 8 9 10 11 12 12 12 12 14 17 21 24 24 23 22 21 22 23 22 18 17 18 20 19 18 16
Wind_Direction
243 246 247 248 251 254 255 257 260 264 269 271 274 275 273 271 273 275 272 267 262 258 254 247 243 238 235 234 233 232 232 230 227 227 230 228 223 225 230 232 233 233
240 241 244 246 248 250 253 255 256 260 264 267 269 269 268 267 267 269 269 263 254 251 249 247 245 242 239 238 236 234 232 228 225 226 226 221 220 225 227 226 226 227
251 242 240 243 245 247 250 252 253 256 261 262 265 267 265 263 263 264 265 261 252 243 241 242 243 241 241 241 239 234 229 227 226 225 221 219 223 227 224 222 223 226
262 253 243 240 242 244 246 249 250 252 255 258 261 264 263 261 260 261 263 262 255 240 233 234 236 239 238 234 230 226 225 227 227 224 219 218 223 224 221 221 223 226
263 261 254 247 243 240 240 243 247 248 250 252 255 258 258 258 257 259 263 263 258 244 230 228 231 234 236 230 220 218 222 227 227 223 218 218 222 221 219 221 223 227
262 260 259 256 253 248 241 238 239 241 244 247 249 251 252 253 253 255 259 260 257 248 232 227 229 228 230 231 222 217 220 224 222 219 215 217 221 221 221 223 224 227
260 258 258 256 255 256 253 248 242 237 239 243 245 246 246 247 248 250 254 255 251 246 237 230 229 225 223 225 222 217 217 218 216 213 213 217 220 220 221 223 223 226
256 256 259 256 252 252 253 255 252 244 240 240 240 241 239 240 243 243 245 249 245 241 236 230 226 223 219 219 218 215 212 213 212 211 213 216 219 220 220 220 221 225
258 254 256 256 252 249 247 247 247 246 245 243 240 239 234 231 236 237 235 240 243 240 235 229 225 222 220 218 215 211 207 207 210 212 215 217 218 219 217 215 216 219
270 260 252 251 250 247 243 241 240 241 246 247 245 244 236 227 227 230 229 230 237 240 235 230 225 220 219 218 214 209 204 206 210 214 217 217 214 213 213 213 213 215
279 263 245 242 244 241 237 236 237 239 244 246 248 249 242 229 222 223 224 223 229 236 234 229 225 218 215 213 212 210 207 207 209 212 214 212 207 207 209 213 214 213
279 265 248 242 242 237 231 230 233 237 240 240 244 250 247 237 225 218 217 218 224 232 233 229 225 220 216 212 209 210 210 208 206 208 211 210 206 205 207 212 213 211
277 267 258 250 243 234 228 231 233 234 235 234 235 243 247 245 236 223 216 214 218 226 229 228 226 223 220 217 213 210 207 207 207 208 210 209 207 206 207 208 207 206
277 268 257 248 243 233 228 234 238 235 234 233 231 234 241 245 243 234 222 213 213 220 223 223 225 223 220 218 215 213 208 206 207 208 206 204 202 200 199 200 199 201
274 273 261 248 243 238 232 235 238 237 236 236 233 231 232 236 237 235 231 221 215 217 217 217 220 221 220 217 214 212 207 205 205 202 199 196 194 191 191 194 196 197
270 276 269 255 245 241 236 235 238 239 238 237 236 231 227 229 234 238 239 234 226 220 216 213 212 214 214 212 211 209 205 202 199 194 192 191 189 189 190 193 196 195
263 269 269 258 246 239 237 237 239 240 238 235 233 230 225 226 233 238 238 238 237 234 227 220 216 214 210 205 203 201 197 196 193 189 190 191 189 190 191 193 197 198
255 253 259 254 239 230 231 234 235 236 236 233 228 227 227 227 233 237 233 231 234 236 237 235 231 228 223 213 205 196 188 187 192 192 192 191 190 191 191 192 197 200
248 241 249 249 230 213 209 217 225 227 229 230 227 228 230 231 237 238 230 227 230 229 231 233 234 238 239 232 225 212 192 187 195 198 195 195 197 196 189 189 199 203
250 243 247 251 237 216 195 187 203 215 219 223 226 227 228 230 235 234 226 224 228 229 226 224 228 232 227 222 227 228 212 199 202 206 202 202 206 204 190 184 195 206
246 242 243 253 255 250 231 182 179 195 203 209 214 216 221 225 227 226 224 222 222 224 222 219 225 224 212 205 210 220 221 213 208 211 211 208 208 209 203 194 193 199
232 231 234 245 250 252 253 238 196 180 180 191 200 202 207 214 215 218 223 224 222 221 216 213 219 217 207 203 205 212 220 220 214 216 222 222 214 212 219 220 209 204
210 214 226 238 238 238 242 244 237 217 180 176 184 186 189 196 202 208 215 218 215 212 208 207 210 208 206 211 213 213 218 221 220 221 227 236 234 226 229 240 244 240
209 211 220 230 232 232 234 241 247 246 232 201 187 179 171 171 177 184 192 195 192 192 197 202 205 205 206 213 220 222 223 223 224 224 226 232 239 239 240 246 255 258
217 210 219 231 230 226 227 233 240 238 229 221 215 206 195 184 169 159 161 169 171 174 183 195 203 206 208 213 219 224 226 227 227 229 229 231 238 246 249 247 245 246
219 205 212 230 234 227 224 227 231 230 224 217 212 211 214 209 183 156 152 160 162 163 170 182 194 201 206 212 218 220 223 227 230 232 233 234 239 244 245 245 244 243